Total_Precipitation_Accumulation
0.58 0.54 0.53 0.52 0.49 0.48 0.48 0.50 0.52 0.51 0.49 0.45 0.40 0.36 0.36 0.38 0.34 0.29 0.23 0.22 0.19 0.20 0.29 0.46 0.73 1.00 1.20 1.29 1.27 1.11 1.02 0.88 0.71 0.61 0.57 0.64 0.66 0.65 0.68 0.79 0.77 0.67 0.65
0.53 0.47 0.45 0.44 0.41 0.37 0.35 0.36 0.37 0.38 0.39 0.37 0.33 0.29 0.30 0.33 0.33 0.32 0.31 0.31 0.26 0.23 0.26 0.36 0.52 0.78 1.10 1.31 1.39 1.33 1.18 1.08 0.90 0.72 0.63 0.62 0.67 0.67 0.67 0.73 0.82 0.79 0.69
0.54 0.51 0.47 0.43 0.41 0.41 0.40 0.39 0.39 0.38 0.35 0.32 0.29 0.26 0.25 0.25 0.29 0.31 0.32 0.34 0.34 0.31 0.29 0.35 0.45 0.64 0.96 1.27 1.42 1.53 1.40 1.24 1.12 0.96 0.76 0.64 0.66 0.71 0.70 0.73 0.80 0.88 0.85
0.56 0.53 0.52 0.48 0.47 0.49 0.49 0.48 0.44 0.42 0.38 0.34 0.32 0.29 0.27 0.24 0.22 0.25 0.30 0.31 0.32 0.32 0.31 0.33 0.44 0.61 0.83 1.12 1.39 1.62 1.69 1.50 1.38 1.30 1.10 0.86 0.71 0.72 0.76 0.77 0.82 0.90 0.98
0.57 0.54 0.52 0.53 0.56 0.60 0.58 0.54 0.50 0.45 0.42 0.38 0.36 0.33 0.30 0.27 0.24 0.25 0.27 0.31 0.32 0.31 0.31 0.32 0.38 0.49 0.66 0.93 1.32 1.66 1.97 1.97 1.77 1.64 1.46 1.25 0.99 0.81 0.81 0.81 0.84 0.91 1.01
0.63 0.61 0.58 0.58 0.62 0.65 0.63 0.60 0.53 0.48 0.45 0.44 0.44 0.41 0.34 0.28 0.26 0.26 0.25 0.28 0.31 0.32 0.32 0.36 0.40 0.38 0.44 0.59 0.88 1.30 1.70 2.03 2.05 1.93 1.81 1.60 1.36 1.13 0.98 0.92 0.90 0.97 1.08
0.71 0.70 0.64 0.65 0.64 0.65 0.62 0.59 0.58 0.56 0.51 0.49 0.54 0.54 0.47 0.37 0.31 0.27 0.27 0.29 0.31 0.35 0.42 0.47 0.54 0.50 0.43 0.46 0.50 0.67 1.08 1.64 2.00 2.13 2.09 2.01 1.77 1.50 1.28 1.11 1.06 1.09 1.16
0.73 0.79 0.73 0.68 0.67 0.65 0.66 0.67 0.65 0.64 0.63 0.57 0.57 0.63 0.58 0.51 0.40 0.30 0.29 0.31 0.34 0.42 0.53 0.58 0.63 0.64 0.57 0.48 0.37 0.39 0.54 0.98 1.59 2.07 2.20 2.19 2.22 2.03 1.67 1.40 1.26 1.27 1.33
0.68 0.76 0.80 0.74 0.70 0.68 0.65 0.64 0.63 0.62 0.64 0.58 0.54 0.72 0.78 0.57 0.37 0.28 0.25 0.26 0.28 0.30 0.34 0.41 0.48 0.53 0.59 0.58 0.48 0.40 0.40 0.59 1.03 1.69 2.20 2.29 2.33 2.43 2.22 1.77 1.50 1.42 1.44
0.73 0.70 0.78 0.80 0.78 0.75 0.71 0.66 0.64 0.63 0.68 0.69 0.58 0.54 0.58 0.57 0.56 0.39 0.25 0.23 0.22 0.23 0.22 0.24 0.29 0.35 0.46 0.55 0.58 0.53 0.47 0.48 0.72 1.17 1.86 2.41 2.48 2.58 2.68 2.33 1.86 1.59 1.49
0.86 0.77 0.74 0.79 0.80 0.80 0.79 0.73 0.69 0.70 0.72 0.74 0.70 0.59 0.52 0.45 0.46 0.54 0.37 0.25 0.25 0.23 0.22 0.22 0.23 0.24 0.29 0.39 0.47 0.52 0.55 0.50 0.61 0.86 1.28 1.98 2.60 2.80 2.92 2.77 2.28 1.83 1.58
0.96 0.93 0.80 0.78 0.79 0.80 0.81 0.79 0.73 0.71 0.73 0.73 0.70 0.66 0.66 0.62 0.49 0.52 0.46 0.30 0.26 0.24 0.24 0.24 0.24 0.24 0.25 0.29 0.34 0.46 0.53 0.55 0.56 0.69 0.86 1.28 2.07 2.75 3.01 2.92 2.58 2.17 1.77
1.07 0.97 0.92 0.83 0.81 0.80 0.80 0.81 0.81 0.75 0.71 0.75 0.77 0.72 0.66 0.61 0.54 0.58 0.62 0.49 0.38 0.30 0.30 0.30 0.26 0.27 0.28 0.29 0.32 0.38 0.43 0.50 0.56 0.63 0.66 0.76 1.16 2.03 2.85 3.13 2.88 2.47 2.12
1.09 0.97 0.93 0.87 0.82 0.83 0.86 0.85 0.82 0.80 0.75 0.73 0.72 0.71 0.68 0.61 0.61 0.64 0.70 0.74 0.66 0.43 0.34 0.31 0.28 0.27 0.29 0.30 0.32 0.36 0.34 0.41 0.48 0.55 0.60 0.64 0.73 1.11 1.93 2.89 3.44 3.11 2.57
1.20 1.12 1.04 0.99 0.92 0.90 0.89 0.89 0.86 0.81 0.81 0.81 0.78 0.73 0.73 0.66 0.63 0.63 0.66 0.77 0.94 0.77 0.41 0.27 0.27 0.29 0.29 0.33 0.38 0.35 0.32 0.37 0.43 0.50 0.55 0.61 0.68 0.79 1.12 1.80 2.78 3.47 3.33
1.30 1.31 1.25 1.19 1.09 1.05 1.02 0.99 0.95 0.86 0.84 0.84 0.85 0.81 0.79 0.75 0.69 0.67 0.68 0.67 0.75 0.83 0.61 0.29 0.26 0.30 0.34 0.35 0.42 0.39 0.37 0.42 0.44 0.48 0.52 0.55 0.62 0.73 0.88 1.17 1.77 2.72 3.33
1.36 1.42 1.46 1.40 1.32 1.22 1.18 1.17 1.11 1.03 0.98 0.89 0.88 0.89 0.85 0.80 0.78 0.70 0.69 0.67 0.64 0.71 0.71 0.35 0.26 0.30 0.40 0.44 0.46 0.44 0.43 0.40 0.39 0.43 0.48 0.54 0.58 0.68 0.82 0.99 1.25 1.86 2.75
1.33 1.38 1.56 1.58 1.51 1.41 1.32 1.33 1.33 1.24 1.18 1.09 1.02 1.00 0.96 0.93 0.93 0.85 0.81 0.74 0.66 0.63 0.71 0.56 0.33 0.32 0.40 0.49 0.55 0.54 0.49 0.43 0.41 0.48 0.50 0.53 0.57 0.63 0.76 0.92 1.08 1.34 1.92
1.29 1.39 1.55 1.69 1.65 1.60 1.50 1.38 1.43 1.53 1.48 1.39 1.31 1.27 1.21 1.15 1.14 1.07 0.99 0.87 0.74 0.65 0.65 0.65 0.48 0.38 0.42 0.53 0.67 0.67 0.62 0.55 0.46 0.52 0.54 0.55 0.58 0.60 0.65 0.76 0.93 1.10 1.34
1.24 1.41 1.53 1.70 1.77 1.82 1.89 1.78 1.67 1.59 1.57 1.57 1.53 1.48 1.49 1.46 1.40 1.31 1.26 1.07 0.89 0.82 0.75 0.75 0.63 0.51 0.50 0.57 0.78 0.87 0.83 0.74 0.62 0.53 0.57 0.56 0.59 0.61 0.60 0.60 0.66 0.82 1.08
1.25 1.38 1.48 1.61 1.67 1.87 2.31 2.41 1.99 1.50 1.37 1.38 1.35 1.32 1.39 1.53 1.58 1.57 1.56 1.37 1.21 1.17 1.07 1.01 0.88 0.74 0.65 0.71 0.87 0.94 0.99 0.92 0.85 0.71 0.59 0.51 0.50 0.49 0.49 0.52 0.59 0.71 0.90
1.22 1.35 1.40 1.43 1.48 1.68 2.19 2.31 1.82 1.40 1.22 1.21 1.20 1.15 1.16 1.28 1.35 1.40 1.51 1.51 1.52 1.57 1.49 1.32 1.14 0.98 0.78 0.71 0.81 1.04 1.13 1.21 1.17 0.89 0.75 0.64 0.54 0.52 0.48 0.45 0.50 0.59 0.77
1.15 1.21 1.25 1.24 1.24 1.42 1.85 1.93 1.64 1.34 1.18 1.06 1.05 1.04 1.02 1.04 1.14 1.06 1.16 1.29 1.39 1.54 1.62 1.56 1.46 1.15 0.90 0.80 0.93 1.14 1.22 1.27 1.17 1.00 0.99 1.01 0.81 0.69 0.59 0.55 0.58 0.58 0.68
1.11 1.08 1.09 1.08 1.07 1.19 1.62 1.80 1.65 1.35 1.25 1.14 1.06 0.96 0.91 0.90 1.03 1.09 1.14 1.13 1.10 1.21 1.42 1.54 1.60 1.39 1.14 1.06 1.25 1.45 1.54 1.52 1.35 1.24 1.23 1.30 1.05 0.86 0.77 0.71 0.68 0.61 0.62
0.98 0.97 0.95 1.00 0.97 1.03 1.47 1.85 1.77 1.41 1.38 1.29 1.19 1.10 1.00 0.87 1.08 1.20 1.12 1.04 0.95 0.99 1.13 1.36 1.52 1.51 1.47 1.47 1.59 1.80 1.88 1.89 1.76 1.49 1.39 1.43 1.28 1.05 0.98 0.95 0.86 0.73 0.62
0.84 0.87 0.83 0.87 0.88 0.93 1.25 1.77 1.89 1.43 1.33 1.26 1.19 1.15 1.22 1.13 1.20 1.16 1.02 1.02 1.02 0.92 0.89 0.97 1.05 1.12 1.12 1.14 1.36 1.56 1.66 1.80 1.80 1.80 1.56 1.47 1.49 1.41 1.47 1.22 0.98 0.75 0.63